Regional Weather Roundup
Issued by NWS Newport/Morehead, NC

Home | Current Version | Previous Version | Text Only | Print | Product List | Glossary On
Versions: 1 2 3 4 5 6 7 8 9 10 11 12 13 14 15 16 17 18 19 20 21 22 23 24 25 26 27 28 29 30 31 32 33 34 35 36 37 38 39 40 41 42 43 44 45 46 47 48 49 50
000
ASUS42 KMHX 241513
RWRMHX
WEATHER ROUNDUP FOR EASTERN NORTH CAROLINA
NATIONAL WEATHER SERVICE NEWPORT/MOREHEAD CITY NC
1000 AM EST TUE JAN 24 2017

NOTE: "FAIR" INDICATES FEW OR NO CLOUDS BELOW 12,000 FEET
WITH NO SIGNIFICANT WEATHER AND/OR OBSTRUCTIONS TO VISIBILITY

NCZ015>017-031-032-045>047-102-103-241600-
NORTH COAST

CITY           SKY/WX    TMP DP  RH WIND       PRES   REMARKS
EDENTON        CLOUDY    46  38  73 NW15      29.58R
ELIZABETH CITY CLOUDY    42  37  82 W14       29.54R
KITTY HAWK     NOT AVBL
MANTEO         CLOUDY    42  37  81 NW13G22   29.52R

$$

NCZ045>047-081-094-103-104-241600-
CENTRAL COAST

CITY           SKY/WX    TMP DP  RH WIND       PRES   REMARKS
FRISCO         CLOUDY    45  38  76 NW13G30     N/A

$$

NCZ095-097-098-100-101-241600-
SOUTHERN COAST

CITY           SKY/WX    TMP DP  RH WIND       PRES   REMARKS
BEAUFORT       SUNNY     49  40  71 NW18      29.61R
CEDAR ISLAND   NOT AVBL
JACKSONVILLE   SUNNY     50  41  71 NW14      29.63R
PINEY ISLAND   SUNNY    N/A N/A N/A NW20      29.58R
WILMINGTON     CLOUDY    49  41  74 W13       29.65R


$$

NCZ011>013-027>030-043-044-078>080-089-090>093-098-241600-
COASTAL PLAIN

CITY           SKY/WX    TMP DP  RH WIND       PRES   REMARKS
AHOSKIE          N/A     44  35  71 N5        29.60R
CLINTON        SUNNY     52  43  70 W7        29.65R
ELIZABETHTOWN  SUNNY     51  43  72 W6        29.67R
GOLDSBORO      MOSUNNY   49  41  73 W9        29.62R
GREENVILLE     SUNNY     50  36  57 NW9G16    29.65R
HAVELOCK       SUNNY     49  37  63 NW12G22   29.62R
KENANSVILLE    MOSUNNY   52  41  66 W7        29.64R
KINSTON        SUNNY     48  37  66 W9G16     29.63R
NEW BERN       MOSUNNY   48  38  68 W14G23    29.62R
RICHLANDS      SUNNY     50  40  68 NW10      29.64R
ROCKY MOUNT    SUNNY     48  37  65 NW13      29.62R
WASHINGTON     SUNNY     48  36  62 NW8G22      N/A
WHITEVILLE     SUNNY     51  44  76 W9        29.67R

$$

AMZ130-135-150-152-154-156-158-170-250-252-270-ANZ085-086-088-633-658-670-241600-
MARINE OBSERVATIONS

STATION/POSITION TIME  TEMP    WIND        PRES    WAVE   SWELL
                       AIR SEA DIR/SP/G            HT/PER HT/PER
                 (UTC) (F)     (DEG/KT/KT) (MB)    (FT/S) (FT/S)
CHESAPEAKE LIGHT NOT AVBL
64 E VA BEACH    1450   44 53  310/ 25/ 29  996.5   11/12   7/12
DUCK             1436   41 46  300/ 15/ 18  998.7
2 E DUCK         1430      46                N/A     7/13   5/13
OREGON INLET     1442          290/ 15/ 21  999.2
13E OREGON INLT  NOT AVBL
HATTERAS CG      1436   45 56  300/ 23/ 27  999.6
DIAMOND BUOY     1450   47 74  310/ 23/ 27  999.6    9/12   7/12
CAPE LOOKOUT     1500   47     300/ 19/ 23 1002.0
BEAUFORT LAB     1436   46 52  320/  7/ 13 1001.2
30 SE NEW RVR IN 1408   48 66  310/ 19/ 25 1002.4
30 SE NEW RVR IN 1443      65                N/A     7/12   3/12
27 SE WRIGHTSVLE 1408   50 67  280/ 17/ 23 1001.7
5 SE WRIGHTSVLE  1408   48 56  290/ 14/ 21 1003.7
225 S CAPE HAT   1450   65 71  310/ 29/ 37 1000.9   16/11  11/11
41 SE CHARLESTON 1450   57 69  300/ 19/ 23 1005.9    6/ 7   2/11

$$



USA.gov is the U.S. government's official web portal to all federal, state and local government web resources and services.